This is the latest recevied weather packets stored in our database for station/object KJ4AJP. If no packets are shown the sender has not sent any weather packets the latest 10 day(s).
| Time | Temp. | Humidity | Pressure | Rain* | Wind** | Luminosity | Snow |
|---|---|---|---|---|---|---|---|
| 1777610231 | 12.78° C | 80% | 1015.9 hPa | 0 mm | - | 0 W/m² | - |
| 1777609929 | 12.78° C | 80% | 1015.9 hPa | 0 mm | - | 0 W/m² | - |
| 1777609625 | 12.78° C | 79% | 1016 hPa | 0 mm | - | 0 W/m² | - |
| 1777609322 | 12.78° C | 79% | 1016 hPa | 0 mm | - | 0 W/m² | - |
| 1777609020 | 12.78° C | 79% | 1016 hPa | 0 mm | - | 0 W/m² | - |
| 1777608716 | 12.78° C | 79% | 1016.4 hPa | 0 mm | - | 0 W/m² | - |
| 1777608413 | 12.78° C | 78% | 1016.5 hPa | 0 mm | - | 0 W/m² | - |
| 1777608111 | 12.78° C | 78% | 1016.3 hPa | 0 mm | - | 0 W/m² | - |
| 1777607807 | 12.78° C | 77% | 1016.4 hPa | 0 mm | - | 0 W/m² | - |
| 1777607503 | 12.78° C | 77% | 1016.5 hPa | 0 mm | - | 0 W/m² | - |
| 1777607200 | 12.78° C | 76% | 1016.1 hPa | 0 mm | - | 0 W/m² | - |
| 1777606896 | 12.78° C | 76% | 1016 hPa | 0 mm | - | 0 W/m² | - |
| 1777606592 | 12.78° C | 75% | 1016.3 hPa | 0 mm | - | 0 W/m² | - |
| 1777606287 | 12.78° C | 76% | 1016 hPa | 0 mm | - | 0 W/m² | - |
| 1777605982 | 12.78° C | 74% | 1016.3 hPa | 0 mm | - | 0 W/m² | - |
| 1777605679 | 12.78° C | 73% | 1016.4 hPa | 0 mm | - | 0 W/m² | - |
| 1777605378 | 12.78° C | 75% | 1016.3 hPa | 0 mm | - | 0 W/m² | - |
| 1777605075 | 13.33° C | 74% | 1016.4 hPa | 0 mm | - | 0 W/m² | - |
| 1777604770 | 12.78° C | 73% | 1016.1 hPa | 0 mm | - | 0 W/m² | - |
| 1777604468 | 12.78° C | 74% | 1016.3 hPa | 0 mm | - | 0 W/m² | - |
| 1777604167 | 12.78° C | 73% | 1016.3 hPa | 0 mm | - | 0 W/m² | - |
| 1777603864 | 13.33° C | 72% | 1016.5 hPa | 0 mm | - | 0 W/m² | - |
| 1777603561 | 12.78° C | 72% | 1016.4 hPa | 0 mm | - | 0 W/m² | - |
| 1777603256 | 13.33° C | 69% | 1016.3 hPa | 0 mm | - | 0 W/m² | - |
| 1777602952 | 13.33° C | 64% | 1016.4 hPa | 0 mm | - | 0 W/m² | - |
* Rain latest hour (hover to see other rain measurements)
** Current wind speed in m/s (hover to see current wind gust speed)